This is the latest recevied weather packets stored in our database for station/object KM4RT-13. If no packets are shown the sender has not sent any weather packets the latest 10 day(s).
| Time | Temp. | Humidity | Pressure | Rain* | Wind** | Luminosity | Snow |
|---|---|---|---|---|---|---|---|
| 1777920901 | 25.56° C | 44% | 1009 hPa | 0 mm | - | 741 W/m² | - |
| 1777920598 | 26.11° C | 42% | 1008.9 hPa | 0 mm | - | 748 W/m² | - |
| 1777920293 | 25.56° C | 45% | 1009.2 hPa | 0 mm | - | 758 W/m² | - |
| 1777919989 | 25.56° C | 43% | 1009 hPa | 0 mm | - | 775 W/m² | - |
| 1777919686 | 25.56° C | 43% | 1009.2 hPa | 0 mm | - | 679 W/m² | - |
| 1777919384 | 25.56° C | 43% | 1009.2 hPa | 0 mm | - | 741 W/m² | - |
| 1777919081 | 25° C | 45% | 1009.5 hPa | 0 mm | - | 800 W/m² | - |
| 1777918778 | 25° C | 46% | 1009.4 hPa | 0 mm | - | 651 W/m² | - |
| 1777918475 | 25° C | 47% | 1009.4 hPa | 0 mm | - | 476 W/m² | - |
| 1777918174 | 25° C | 46% | 1009.4 hPa | 0 mm | - | 515 W/m² | - |
| 1777917872 | 25° C | 47% | 1009.5 hPa | 0 mm | - | 680 W/m² | - |
| 1777917570 | 25° C | 46% | 1009.8 hPa | 0 mm | - | 713 W/m² | - |
| 1777917267 | 25° C | 46% | 1009.7 hPa | 0 mm | - | 559 W/m² | - |
| 1777916965 | 25° C | 45% | 1009.9 hPa | 0 mm | - | 685 W/m² | - |
| 1777916662 | 25° C | 47% | 1009.9 hPa | 0 mm | - | 719 W/m² | - |
| 1777916359 | 25° C | 49% | 1009.8 hPa | 0 mm | - | 790 W/m² | - |
| 1777916055 | 24.44° C | 47% | 1009.8 hPa | 0 mm | - | 830 W/m² | - |
| 1777915753 | 24.44° C | 48% | 1010 hPa | 0 mm | - | 753 W/m² | - |
| 1777915449 | 24.44° C | 48% | 1010.1 hPa | 0 mm | - | 516 W/m² | - |
| 1777915145 | 24.44° C | 52% | 1010.1 hPa | 0 mm | - | 637 W/m² | - |
| 1777914843 | 25° C | 48% | 1010.3 hPa | 0 mm | - | 588 W/m² | - |
| 1777914540 | 23.89° C | 51% | 1010.5 hPa | 0 mm | - | 629 W/m² | - |
| 1777914236 | 23.89° C | 51% | 1010.4 hPa | 0 mm | - | 797 W/m² | - |
| 1777913933 | 24.44° C | 52% | 1010.7 hPa | 0 mm | - | 750 W/m² | - |
| 1777913629 | 24.44° C | 52% | 1010.6 hPa | 0 mm | - | 786 W/m² | - |
* Rain latest hour (hover to see other rain measurements)
** Current wind speed in m/s (hover to see current wind gust speed)